Date,TemperatureHighF,TemperatureAvgF,TemperatureLowF,DewpointHighF,DewpointAvgF,DewpointLowF,HumidityHigh,HumidityAvg,HumidityLow,PressureMaxIn,PressureMinIn,WindSpeedMaxMPH,WindSpeedAvgMPH,GustSpeedMaxMPH,PrecipitationSumIn
2013-5-20,83.4,76.4,69.1,69.4,67.7,66.7,93,75,59,30.03,29.93,5,1,14,0.02
2013-5-21,83.0,73.9,68.3,69.0,67.7,66.3,95,82,62,29.95,29.83,5,1,15,0.00
2013-5-22,83.2,75.6,69.8,71.4,69.3,67.7,95,82,67,29.89,29.80,5,1,17,0.00
2013-5-23,79.6,74.1,71.1,69.8,67.9,66.5,89,81,67,29.86,29.71,6,2,24,0.00
2013-5-24,69.1,57.0,50.4,67.3,49.2,39.0,96,76,57,30.03,29.67,27,8,27,0.10
2013-5-25,64.7,56.4,47.6,41.5,37.1,33.5,65,49,33,30.07,29.99,24,8,24,0.00
2013-5-26,70.4,62.9,51.0,45.8,39.5,34.2,82,45,27,30.14,30.05,17,4,17,0.00
2013-5-27,74.2,66.4,45.7,52.7,45.4,35.9,95,50,27,30.21,30.12,10,0,10,0.00
2013-5-28,82.8,72.3,58.7,67.6,62.8,52.3,94,73,57,30.15,30.01,16,1,16,0.16
2013-5-29,88.8,77.9,68.1,69.6,67.0,63.4,92,70,43,30.07,30.01,17,2,17,0.00
2013-5-30,90.7,78.9,69.1,72.6,67.3,64.4,89,69,47,30.12,30.05,11,1,11,0.00
2013-5-31,90.1,82.4,67.4,69.4,67.1,62.9,96,62,45,30.10,29.98,13,2,19,0.00
2013-6-1,90.7,81.0,69.3,70.2,69.0,66.6,93,68,47,30.00,29.88,19,2,20,0.00
2013-6-2,87.4,78.6,70.8,70.7,68.4,67.1,94,72,54,29.89,29.77,26,2,26,0.35
2013-6-3,79.9,72.0,67.3,70.6,68.3,65.5,96,88,68,29.85,29.73,14,1,14,0.44
2013-6-4,74.2,67.1,56.0,66.7,52.3,40.2,96,62,34,30.05,29.85,16,2,16,0.00
2013-6-5,80.7,67.2,52.3,60.0,54.0,46.9,97,67,33,30.12,30.01,12,0,12,0.00
2013-6-6,77.0,67.2,56.3,65.6,59.2,54.5,96,77,56,30.05,29.83,13,1,13,0.05
2013-6-7,72.7,69.6,66.9,72.1,68.7,65.4,98,97,95,29.83,29.46,20,1,20,4.15
2013-6-8,79.9,71.1,66.0,69.3,66.1,63.8,97,85,59,30.02,29.56,17,1,20,0.08
2013-6-9,83.4,72.8,62.4,69.8,65.6,61.5,98,80,54,30.13,30.02,7,0,7,0.00
2013-6-10,82.0,74.6,67.8,74.3,71.3,65.5,98,90,72,30.05,29.76,20,1,20,0.52
2013-6-11,84.0,76.1,69.8,70.7,67.2,63.6,96,75,52,29.77,29.69,18,2,18,0.01
2013-6-12,85.5,78.1,71.3,73.3,67.0,63.6,88,69,55,29.80,29.73,15,2,15,0.00
2013-6-13,90.1,76.5,70.6,73.7,68.1,60.0,90,76,47,29.76,29.36,27,4,27,0.15
2013-6-14,75.8,66.5,58.1,60.7,56.7,51.8,95,73,46,29.88,29.47,15,5,23,0.05
2013-6-15,82.4,71.3,59.0,64.6,59.6,53.9,97,70,38,30.00,29.88,13,1,13,0.01
2013-6-16,84.5,74.9,64.2,71.2,66.5,62.6,97,77,52,29.96,29.81,19,2,19,0.00
2013-6-17,85.5,77.5,70.8,70.9,69.3,66.6,93,77,57,29.90,29.82,14,1,14,0.00
2013-6-18,79.4,70.7,62.7,73.0,67.9,61.8,97,91,79,29.88,29.72,19,1,19,0.77
2013-6-19,77.7,67.9,60.5,65.4,62.6,58.0,98,84,55,30.11,29.80,11,1,11,0.01
2013-6-20,80.9,68.4,55.7,64.0,56.6,51.3,98,70,40,30.22,30.11,14,1,14,0.00
2013-6-21,83.8,69.4,53.3,65.3,57.4,50.7,97,70,38,30.24,30.17,9,0,9,0.00
2013-6-22,87.0,73.4,58.3,67.9,62.6,57.2,97,72,43,30.19,30.09,11,0,11,0.00
2013-6-23,82.0,74.5,65.6,75.1,69.0,61.3,96,83,72,30.13,30.01,14,0,14,0.08
2013-6-24,89.9,79.4,70.9,75.4,72.2,66.2,97,81,50,30.07,29.94,13,1,13,0.04
2013-6-25,91.4,80.7,69.6,74.8,71.2,63.3,98,75,51,29.98,29.82,23,2,23,0.01
2013-6-26,79.0,72.4,69.1,71.5,67.1,63.5,94,84,60,29.90,29.80,16,0,23,0.00
2013-6-27,85.9,78.7,71.3,74.9,71.5,69.1,94,79,65,29.76,29.54,7,2,25,0.04
2013-6-28,88.8,77.7,67.9,72.9,70.4,67.0,97,80,51,29.57,29.44,8,1,21,1.37
2013-6-29,88.0,77.2,67.9,75.0,70.3,65.7,98,82,50,29.64,29.46,4,1,12,0.03
2013-6-30,84.3,79.9,73.0,76.1,74.1,72.0,98,83,71,29.80,29.65,14,2,14,0.00
2013-7-1,80.7,76.3,73.7,75.5,73.8,71.9,96,92,81,29.95,29.79,12,1,12,0.38
2013-7-2,85.5,76.8,72.1,75.5,72.8,70.1,96,88,68,30.14,29.95,15,1,15,0.76
2013-7-3,88.8,79.0,72.7,75.4,73.5,71.5,97,84,61,30.19,30.11,14,1,15,0.00
2013-7-4,88.8,80.7,74.7,74.6,73.1,70.9,96,79,59,30.22,30.13,15,1,15,0.00
2013-7-5,89.7,81.1,72.5,74.7,73.0,71.0,96,78,58,30.18,30.08,17,2,17,0.00
2013-7-6,91.8,83.6,76.3,75.9,74.1,71.9,93,75,55,30.13,30.01,17,2,17,0.00
2013-7-7,91.2,83.0,75.1,74.8,72.7,68.6,90,72,56,30.06,29.94,6,3,18,0.00
2013-7-8,85.7,78.7,72.3,71.9,70.5,68.0,93,77,56,30.04,29.97,4,1,14,0.00
2013-7-9,87.6,79.9,73.2,74.5,72.8,69.6,95,80,58,30.04,29.94,3,0,10,0.00
2013-7-10,90.5,82.6,74.6,76.4,74.3,71.2,95,77,55,29.96,29.80,17,2,17,0.05
2013-7-11,84.0,77.1,73.3,74.8,71.9,67.1,95,85,58,29.85,29.78,12,1,12,0.10
2013-7-12,73.5,73.0,72.5,72.0,71.7,71.3,96,96,95,29.84,29.83,0,0,0,0.00
2013-7-13,88.8,78.8,71.3,75.7,73.5,70.7,98,85,65,30.21,29.93,3,0,11,0.00
2013-7-14,91.2,82.3,73.7,77.0,72.4,69.6,97,74,51,30.27,30.21,6,0,12,0.00
2013-7-15,92.5,81.8,71.5,76.6,73.6,70.4,97,78,53,30.24,30.11,12,1,12,0.00
2013-7-16,92.1,84.3,76.7,76.8,73.3,67.3,94,72,46,30.15,30.08,12,2,12,0.00
2013-7-17,94.0,84.0,73.0,76.8,72.8,65.8,97,73,41,30.13,30.02,12,1,12,0.00
2013-7-18,94.9,84.5,76.0,78.5,76.6,73.4,96,79,53,30.05,29.93,3,0,12,0.00
2013-7-19,95.6,87.1,77.9,78.3,76.2,71.9,95,72,51,29.95,29.81,16,1,16,0.00
2013-7-20,92.1,86.0,81.8,77.6,75.7,73.0,81,72,55,29.84,29.73,16,3,17,0.00
2013-7-21,92.3,82.6,76.0,75.2,72.5,67.4,92,73,49,29.87,29.80,18,1,18,0.00
2013-7-22,91.0,81.1,73.2,76.2,73.7,71.5,97,80,55,29.86,29.70,14,0,14,0.00
2013-7-23,88.8,81.3,74.4,76.3,72.1,67.4,96,75,54,29.71,29.56,15,2,15,0.00
2013-7-24,82.8,77.0,70.8,73.1,68.5,61.2,96,76,59,29.82,29.60,15,2,15,0.00
2013-7-25,74.4,68.5,63.1,65.0,60.0,54.6,91,75,67,29.95,29.82,15,4,15,0.00
2013-7-26,84.9,72.1,62.1,65.9,61.9,53.7,95,73,37,30.01,29.94,12,1,12,0.00
2013-7-27,85.5,75.2,65.6,72.1,66.4,63.6,98,76,51,30.00,29.88,14,0,14,0.01
2013-7-28,88.6,76.6,69.9,73.9,69.8,64.8,96,81,55,29.91,29.81,17,1,17,0.88
2013-7-29,82.2,73.6,63.7,70.8,62.6,50.6,97,72,38,30.08,29.90,12,1,12,0.00
2013-7-30,81.8,71.3,60.5,64.9,59.9,53.5,96,71,41,30.15,30.08,13,1,13,0.00
2013-7-31,83.6,72.9,63.2,71.8,65.2,62.0,98,79,50,30.09,29.96,11,0,11,0.00
2013-8-1,80.7,73.2,69.4,75.2,70.9,65.3,97,93,79,29.97,29.75,17,0,17,1.39
2013-8-2,87.6,77.5,69.8,73.2,67.6,59.2,99,75,40,29.90,29.77,13,1,13,0.01
2013-8-3,80.7,73.3,68.3,72.2,67.5,63.0,97,83,56,29.91,29.85,9,0,9,0.01
2013-8-4,79.8,71.7,61.8,68.1,61.8,53.6,97,74,45,29.95,29.82,16,3,16,0.02
2013-8-5,81.1,68.5,58.7,62.2,57.7,52.0,96,72,39,30.04,29.94,11,1,11,0.00
2013-8-6,72.0,67.6,63.4,68.5,64.9,60.5,96,91,80,30.04,29.96,12,0,12,0.10
2013-8-7,83.8,73.7,66.8,72.4,68.6,65.0,95,85,64,30.03,29.95,19,1,19,0.04
2013-8-8,75.6,74.9,73.3,72.5,71.3,68.9,90,88,85,29.99,29.95,10,0,10,0.00
2013-8-9,91.0,83.3,76.0,76.5,74.5,71.7,94,76,59,29.93,29.78,19,3,19,0.00
2013-8-10,79.8,77.6,74.4,73.7,69.9,63.7,90,78,58,29.98,29.86,10,1,10,0.00
2013-8-11,83.6,76.6,66.1,71.9,69.4,64.9,97,79,61,30.05,29.96,5,0,6,0.00
2013-8-12,86.7,76.7,67.9,75.0,70.2,66.7,97,82,53,29.98,29.85,10,1,10,0.00
2013-8-13,83.2,77.4,69.4,76.6,71.2,66.2,96,82,59,29.85,29.68,18,2,18,0.39
2013-8-14,74.2,67.0,57.6,68.7,56.2,48.3,96,70,48,30.02,29.71,18,4,18,0.03
2013-8-15,57.6,56.9,56.2,55.8,55.4,55.1,96,95,93,30.03,30.02,0,0,0,0.00
2013-8-17,74.6,74.6,74.6,51.9,51.9,51.9,45,45,45,30.05,30.05,2,2,8,0.00
2013-8-18,74.6,74.6,74.6,51.9,51.9,51.9,45,45,45,30.05,30.05,2,2,2,0.00
2013-8-19,74.6,74.6,74.6,51.9,51.9,51.9,45,45,45,30.05,30.05,2,2,2,0.00
2013-8-20,74.6,74.6,74.6,51.9,51.9,51.9,45,45,45,30.05,30.05,2,2,8,0.00
2013-8-21,80.7,74.8,73.3,73.6,56.4,51.9,94,55,45,30.05,30.02,5,2,5,0.01
2013-8-22,87.8,78.5,70.4,74.6,71.0,68.5,97,79,54,30.03,29.86,13,1,13,0.15
2013-8-23,78.1,72.6,63.2,71.4,66.4,60.9,93,81,67,30.04,29.85,10,1,10,0.00
2013-8-24,82.6,69.4,59.2,68.0,61.9,58.2,98,79,48,30.27,30.04,13,1,13,0.01
2013-8-25,81.1,66.9,53.5,66.6,58.0,52.7,98,77,41,30.36,30.22,10,0,10,0.00
2013-8-26,84.5,72.4,58.9,67.4,62.6,57.2,96,73,51,30.23,29.92,14,2,14,0.01
2013-8-27,87.6,78.7,71.6,74.7,69.1,65.3,95,73,55,29.93,29.81,12,2,12,0.02
2013-8-28,88.0,75.7,70.8,75.5,72.1,68.6,97,89,55,29.84,29.76,13,0,13,0.19
2013-8-29,84.0,74.8,66.0,72.9,69.9,64.4,97,86,63,29.96,29.76,14,1,14,0.00
2013-8-30,84.5,73.5,64.2,71.2,67.8,63.1,98,84,58,29.98,29.85,12,0,12,0.00
2013-8-31,88.6,78.9,71.5,73.3,71.2,68.6,94,79,59,29.87,29.75,19,1,19,0.01
2013-9-1,90.5,79.5,71.3,75.5,72.3,69.0,96,81,51,29.79,29.70,13,1,13,0.00
2013-9-2,88.4,79.3,74.2,75.3,72.9,71.1,95,82,59,29.74,29.66,12,1,12,0.00
2013-9-3,84.5,76.2,66.3,74.5,66.4,57.8,97,74,43,29.89,29.66,14,2,14,0.00
2013-9-4,81.6,69.4,58.3,63.3,58.4,52.5,95,70,39,30.00,29.88,10,1,13,0.00
2013-9-5,83.8,71.4,60.7,65.9,60.6,52.3,97,72,46,30.07,29.92,15,2,15,0.00
2013-9-6,76.0,63.4,54.5,57.2,52.0,48.5,94,69,39,30.18,30.05,11,1,11,0.00
2013-9-7,80.5,66.1,51.0,61.9,56.2,50.0,98,74,38,30.08,29.87,14,1,14,0.00
2013-9-8,86.3,73.9,64.2,67.2,64.1,57.8,96,74,48,30.00,29.79,10,1,12,0.01
2013-9-9,79.9,69.2,58.4,66.7,59.9,49.8,95,73,55,30.12,29.98,7,0,7,0.00
2013-9-10,89.9,77.4,65.6,73.4,70.3,64.1,98,81,55,30.13,30.03,14,1,14,0.00
2013-9-11,92.9,81.9,71.8,74.2,71.8,68.1,96,74,45,30.09,29.96,14,1,14,0.00
2013-9-12,92.1,78.4,70.8,73.6,70.2,63.1,98,79,41,29.96,29.67,21,1,21,1.05
2013-9-13,80.3,72.3,64.8,73.6,62.7,51.5,98,74,43,29.83,29.62,20,3,20,0.00
2013-9-14,68.1,60.3,50.4,54.7,50.5,46.3,95,72,49,30.10,29.83,14,2,14,0.00
2013-9-15,75.6,60.5,45.7,58.8,52.7,44.9,98,79,44,30.18,30.04,12,0,13,0.00
2013-9-16,71.8,64.5,57.0,63.9,58.8,52.5,96,83,55,30.16,29.98,13,2,13,0.01
2013-9-17,68.1,57.4,47.1,52.6,45.6,37.4,94,68,34,30.35,30.16,15,2,15,0.00
2013-9-18,71.8,55.7,41.5,53.7,48.0,40.5,98,79,45,30.30,30.14,9,0,9,0.00
2013-9-19,76.5,61.0,47.4,59.2,52.4,46.6,98,77,43,30.15,30.03,11,1,11,0.01
2013-9-20,79.8,63.7,50.7,64.2,56.2,49.9,98,79,46,30.04,29.91,11,0,11,0.00
2013-9-21,79.8,67.2,54.2,69.4,61.2,53.4,98,83,48,29.94,29.63,20,2,20,0.66
2013-9-22,72.3,64.4,53.1,66.1,56.8,49.3,97,78,45,29.86,29.63,19,3,19,0.06
2013-9-23,64.8,55.6,47.6,50.4,46.2,42.4,94,72,48,30.01,29.86,21,2,21,0.00
2013-9-24,70.1,54.8,42.5,53.5,46.5,41.0,98,77,43,30.04,29.88,13,2,13,0.01
2013-9-25,75.3,58.3,47.0,55.6,50.1,45.4,98,78,38,29.91,29.81,9,1,10,0.00
2013-9-26,73.7,61.3,52.6,61.7,54.2,50.5,98,80,46,30.01,29.85,9,1,11,0.00
2013-9-27,71.5,60.4,52.6,61.2,54.4,51.4,98,83,51,30.18,30.01,10,0,10,0.00
2013-9-28,73.3,60.5,50.7,57.7,53.4,49.6,97,80,49,30.24,30.14,13,1,13,0.01
2013-9-29,74.4,60.3,50.7,60.7,53.1,49.5,98,80,45,30.14,30.00,10,0,10,0.00
2013-9-30,73.9,59.2,47.9,58.3,51.3,47.1,98,79,41,30.03,29.93,6,0,10,0.01
2013-10-1,79.8,64.5,50.4,63.1,57.0,49.4,98,80,50,30.00,29.90,11,0,11,0.00
2013-10-2,83.6,70.3,58.3,64.5,61.0,57.2,97,75,47,30.01,29.93,12,1,12,0.00
2013-10-3,84.9,70.1,59.3,68.2,62.6,58.5,98,80,44,30.05,29.98,11,0,11,0.00
2013-10-4,85.7,71.4,59.6,69.7,63.5,58.5,98,79,46,30.02,29.94,7,0,10,0.00
2013-10-5,87.2,73.3,64.3,70.1,65.0,62.2,98,78,44,30.02,29.94,9,0,9,0.00
2013-10-6,88.4,74.5,64.3,71.3,65.7,63.1,98,77,45,29.98,29.89,16,1,16,0.00
2013-10-7,81.4,69.2,59.8,71.6,65.8,54.9,97,89,67,29.99,29.75,21,2,21,0.74
2013-10-8,63.9,57.6,52.5,55.8,49.9,47.1,94,76,59,30.22,29.98,14,2,14,0.00
2013-10-9,61.3,57.6,55.1,57.2,53.2,49.2,96,85,76,30.23,30.10,15,3,15,0.30
2013-10-10,62.4,59.6,56.5,61.8,58.6,55.4,98,97,93,30.10,29.86,15,4,19,0.88
2013-10-11,67.4,64.7,62.4,66.5,64.1,61.8,98,98,97,29.91,29.82,15,3,15,0.79
2013-10-12,66.8,63.9,62.1,64.2,62.4,61.0,98,95,88,30.08,29.89,14,2,14,0.42
2013-10-13,66.0,61.8,58.1,61.8,57.9,53.6,97,87,75,30.26,30.07,13,2,13,0.07
2013-10-14,68.4,59.1,51.7,57.6,54.0,50.6,96,84,61,30.27,30.17,9,2,10,0.00
2013-10-15,73.2,59.2,48.5,59.9,54.3,47.7,98,85,57,30.18,30.02,5,0,9,0.01
2013-10-16,71.5,63.6,59.0,61.6,59.4,56.5,97,87,70,30.02,29.87,5,0,7,0.00
2013-10-17,76.8,67.4,60.5,65.1,63.0,59.4,98,87,63,29.87,29.69,14,1,14,0.00
2013-10-18,69.6,59.0,46.5,63.5,46.7,41.7,95,66,43,29.96,29.72,23,3,23,0.00
2013-10-19,62.4,54.8,45.2,61.4,51.8,44.1,98,90,70,29.95,29.74,11,0,11,0.05
2013-10-20,61.8,53.7,41.8,51.4,40.2,33.7,93,62,36,30.05,29.78,18,3,18,0.00
2013-10-21,67.3,51.9,39.2,55.5,43.1,34.6,98,77,33,30.11,29.93,14,0,14,0.00
2013-10-22,66.3,55.8,48.6,54.5,49.8,47.5,98,82,55,29.93,29.75,11,1,11,0.00
2013-10-23,55.4,49.4,44.5,47.9,41.6,36.6,95,75,56,29.81,29.58,15,2,15,0.21
2013-10-24,52.8,47.1,41.8,38.5,32.6,25.7,78,58,38,30.07,29.81,19,3,19,0.00
2013-10-25,55.4,46.6,40.3,36.5,33.6,31.1,77,61,45,30.26,30.06,18,2,18,0.00
2013-10-26,58.0,45.8,32.4,42.3,32.6,26.4,97,64,32,30.25,29.89,23,2,23,0.00
2013-10-27,59.9,50.5,38.6,41.5,36.9,33.7,93,62,39,30.09,29.88,17,2,17,0.00
2013-10-28,64.8,48.2,36.2,47.9,40.5,34.6,96,78,43,30.22,30.09,7,0,7,0.00
2013-10-29,65.3,50.2,39.8,49.5,43.7,38.4,96,81,46,30.31,30.21,10,0,10,0.00
2013-10-30,61.2,53.8,47.0,58.8,52.0,45.7,98,94,83,30.28,30.11,9,0,9,0.03
2013-10-31,70.8,61.2,48.9,63.9,56.8,48.1,98,87,67,30.15,29.77,17,1,17,0.02
2013-11-1,70.9,67.2,62.9,65.0,62.6,60.0,97,85,74,29.77,29.54,21,2,21,0.04
2013-11-2,69.6,60.1,52.8,62.5,52.1,41.3,98,78,41,29.80,29.56,10,2,17,0.10
2013-11-3,55.3,49.1,38.3,44.4,35.4,24.0,80,60,31,30.39,29.80,19,4,19,0.00
2013-11-4,47.9,38.8,30.7,28.7,24.2,18.8,78,57,35,30.56,30.39,13,1,13,0.00
2013-11-5,62.9,49.0,36.2,46.8,41.0,28.4,91,75,51,30.54,30.41,11,0,11,0.00
2013-11-6,68.3,57.9,49.5,56.7,49.6,45.6,91,75,51,30.41,30.02,15,1,15,0.00
2013-11-7,64.5,57.4,48.2,61.2,51.3,29.5,97,81,49,30.02,29.77,21,4,21,0.06
2013-11-8,51.7,44.4,34.4,31.7,27.2,22.7,83,52,35,30.25,29.98,23,4,23,0.00
2013-11-9,54.2,43.2,29.0,38.3,31.1,26.4,94,65,38,30.30,29.98,15,1,15,0.00
2013-11-10,64.2,51.9,42.3,39.1,33.6,26.8,80,52,27,30.15,29.86,24,4,24,0.00
2013-11-11,55.4,48.4,38.0,40.8,33.5,29.0,76,57,40,30.25,29.96,16,1,16,0.00
2013-11-12,51.4,42.0,34.0,39.1,25.9,13.2,72,53,37,30.31,29.91,23,4,23,0.00
2013-11-13,42.2,35.0,28.4,24.1,19.4,14.9,81,54,36,30.39,30.30,23,4,23,0.00
2013-11-14,56.2,41.3,26.0,33.9,25.6,17.4,88,59,22,30.34,30.19,14,1,14,0.00
2013-11-15,57.2,42.8,30.1,38.6,31.6,26.7,92,67,34,30.24,30.14,12,0,12,0.00
2013-11-16,53.3,49.2,43.3,51.5,47.9,38.8,97,95,84,30.27,30.17,5,0,5,0.36
2013-11-17,67.8,57.9,47.0,60.4,54.5,46.3,98,89,68,30.18,29.73,15,1,15,0.01
2013-11-18,68.9,60.4,52.0,63.1,43.2,25.7,96,60,27,29.84,29.64,27,3,27,0.20
2013-11-19,51.9,45.2,36.3,30.5,27.3,24.8,64,50,39,30.30,29.83,26,6,26,0.00
2013-11-20,46.8,36.5,29.8,30.6,25.9,22.4,89,66,45,30.50,30.28,10,1,10,0.00
2013-11-21,55.1,42.0,30.3,43.5,35.6,26.7,93,78,63,30.50,30.33,5,0,5,0.00
2013-11-22,61.8,53.1,41.1,55.0,50.0,39.2,97,90,72,30.33,29.92,15,1,15,0.16
2013-11-23,54.7,45.8,34.3,53.9,30.3,13.4,97,56,33,30.09,29.93,33,7,33,0.01
2013-11-24,34.1,28.9,25.8,17.9,7.6,3.8,52,40,31,30.45,30.09,28,10,28,0.00
2013-11-25,26.1,24.9,24.2,11.8,10.8,10.0,58,54,51,30.47,30.43,13,2,13,0.00
2013-11-26,60.9,40.6,35.0,60.0,32.8,16.8,98,76,43,30.32,29.50,7,1,24,0.91
2013-11-27,64.3,44.2,33.8,62.8,40.0,18.9,100,86,49,29.92,29.41,14,8,35,1.12
2013-11-28,37.5,32.2,25.6,25.5,18.4,14.2,84,58,39,30.44,29.94,19,4,28,0.00
2013-11-29,41.3,32.4,22.2,29.7,22.0,18.5,93,67,44,30.66,30.41,18,2,18,0.00
2013-11-30,39.5,31.3,24.5,26.8,22.3,17.7,88,70,55,30.66,30.32,7,1,7,0.00
2013-12-1,47.6,34.8,23.0,34.4,28.2,21.3,95,78,50,30.32,29.97,5,0,9,0.00
2013-12-2,53.3,40.6,28.1,37.9,34.1,26.1,95,79,49,29.97,29.81,6,0,6,0.00
2013-12-3,55.6,44.1,36.0,36.8,34.9,31.4,91,72,41,29.95,29.81,12,0,12,0.00
2013-12-4,56.2,48.2,36.0,51.2,44.6,33.6,95,88,72,30.04,29.94,6,0,6,0.00
2013-12-5,61.2,55.7,48.2,59.9,54.4,47.4,99,96,87,30.04,29.89,13,1,13,0.00
2013-12-6,62.1,52.8,40.2,61.1,51.7,39.2,97,96,92,30.09,29.85,22,2,22,0.64
2013-12-7,43.6,36.3,31.8,39.2,30.7,24.1,96,81,62,30.47,30.04,17,3,18,0.35
2013-12-8,32.7,31.2,29.1,31.7,26.4,21.7,97,83,66,30.53,30.16,12,1,12,0.15
2013-12-9,39.2,35.7,32.2,38.5,34.8,31.5,99,96,93,30.18,29.97,10,1,10,0.67
2013-12-10,37.6,35.8,33.1,36.3,31.5,19.5,100,86,51,30.18,29.89,17,1,17,0.26
2013-12-11,42.3,33.8,25.4,26.0,21.8,17.0,92,63,39,30.36,30.17,13,1,13,0.01
2013-12-12,32.2,27.1,21.8,26.7,15.0,7.4,94,62,37,30.36,30.18,18,3,18,0.00
2013-12-13,42.3,33.2,23.8,25.2,18.9,13.2,85,58,32,30.26,30.16,14,2,17,0.00
2013-12-14,51.7,38.7,28.8,51.2,33.9,24.9,99,83,62,30.27,29.58,15,1,15,0.74
2013-12-15,48.2,39.4,29.5,39.8,32.2,23.1,100,77,53,29.89,29.54,23,4,23,0.00
2013-12-16,36.5,32.3,27.6,27.3,22.5,17.0,85,67,53,30.15,29.88,15,2,15,0.00
2013-12-17,42.1,35.2,31.3,37.2,30.8,22.5,95,84,69,30.12,29.87,11,1,11,0.07
2013-12-18,39.5,31.9,24.4,30.8,24.0,18.3,95,75,43,30.18,29.90,21,2,21,0.02
2013-12-19,57.5,41.4,24.4,32.8,27.7,22.4,95,63,32,30.16,30.03,16,1,16,0.00
2013-12-20,59.3,52.6,42.2,51.9,40.4,29.8,84,64,47,30.07,29.95,22,2,22,0.00
2013-12-21,67.9,59.8,52.2,58.8,51.8,47.2,91,75,58,29.99,29.88,21,1,21,0.00
2013-12-22,70.9,62.8,58.9,64.3,59.6,56.7,95,89,74,29.99,29.82,22,2,22,0.18
2013-12-23,63.4,54.7,40.3,62.8,51.6,29.5,98,90,65,30.14,29.87,19,4,19,0.44
2013-12-24,40.8,35.4,25.7,30.5,21.3,7.4,70,57,38,30.40,30.10,32,8,32,0.00
2013-12-25,32.7,25.4,20.3,18.0,13.2,10.1,88,61,41,30.50,30.34,15,2,16,0.00
2013-12-26,43.1,29.7,18.4,29.8,21.4,16.0,93,74,42,30.34,30.17,13,1,13,0.00
2013-12-27,47.9,35.1,24.8,28.2,23.1,16.9,90,65,31,30.38,30.27,12,0,12,0.00
2013-12-28,54.8,40.2,26.9,33.6,28.4,23.3,90,66,32,30.27,30.05,16,1,16,0.00
2013-12-29,58.0,46.4,40.2,57.7,42.4,30.1,100,87,51,30.05,29.43,21,2,21,1.07
2013-12-30,48.9,39.9,31.3,42.5,33.1,21.3,96,77,59,30.13,29.77,18,2,20,0.01
2013-12-31,45.5,35.1,28.1,30.1,21.2,16.9,75,57,42,30.29,30.05,20,3,20,0.00
2014-1-1,46.7,33.2,23.6,28.6,23.5,17.9,91,70,39,30.38,30.07,13,0,13,0.00
2014-1-2,40.6,33.0,27.3,38.3,31.2,26.1,97,93,84,30.07,29.50,7,0,7,0.05